Location: Buffign�court
(47.8126°N, 6.0176°E)
Time: 20:00:27
(UTC+00:00)

Cosmos 2285 Rocket - Pass Details

Date: 16 June 2021
Orbit: 971 x 998 km, 74.0° (Epoch: 31 July)

Event Time Altitude Azimuth Distance (km) Brightness Sun altitude
Rises 20:35:51 0° 204° (SSW) 3,706 6.8 -8.1°
Reaches altitude 10° 20:38:24 10° 206° (SSW) 2,761 6.1 -8.3°
Maximum altitude 20:44:50 80° 293° (WNW) 1,019 4.2 -9.0°
Drops below altitude 10° 20:51:17 10° 21° (NNE) 2,771 6.8 -9.7°
Sets 20:53:51 0° 23° (NNE) 3,721 7.5 -10.0°
